Location: STAR School
(35.3054°N, 111.2976°W)
Time: 14:20:00
(UTC-07:00)

ISS - Visible Passes

Search period start: 21 October 2019 00:00
Search period end: 31 October 2019 00:00
Orbit: 411 x 421 km, 51.6° (Epoch: 21 October)

Date Brightness Start Highest point End Pass type
(mag) Time Alt. Az. Time Alt. Az. Time Alt. Az.
22 Oct -0.8 05:31:23 10° S 05:33:38 17° SE 05:35:54 10° E visible
24 Oct -3.2 05:29:52 11° SSW 05:32:58 56° SE 05:36:16 10° NE visible
25 Oct -2.0 04:44:19 28° SE 04:44:28 28° SE 04:47:23 10° ENE visible
26 Oct -3.3 05:31:26 32° W 05:32:27 42° NW 05:35:40 10° NE visible
27 Oct -2.0 04:45:24 28° NE 04:45:24 28° NE 04:47:10 10° NE visible
28 Oct -2.0 05:32:07 18° NNW 05:32:08 18° NNW 05:34:31 10° NNE visible
29 Oct -1.0 04:45:47 13° NNE 04:45:47 13° NNE 04:46:17 10° NNE visible
